| time (UTC) | temp F | wind direction | speed knots | gust knots | rain 1hr in | rain 24hr in | rain mn in | humidity % | barometer mb |
| 20260903222403 | 69 | 300 | 2.6 | 4.3 | 0.00 | 0.14 | 0.02 | 99 | 1012.5 |
| 20260903221203 | 69 | 300 | 2.6 | 4.3 | 0.00 | 0.14 | 0.02 | 99 | 1012.0 |
| 20260903220003 | 69 | 300 | 2.6 | 4.3 | 0.00 | 0.14 | 0.02 | 99 | 1012.1 |
| 20260903214802 | 69 | 300 | 2.6 | 4.3 | 0.00 | 0.14 | 0.02 | 99 | 1012.0 |
| 20260903213603 | 69 | 300 | 2.6 | 4.3 | 0.00 | 0.14 | 0.02 | 99 | 1011.9 |
| 20260903212403 | 69 | 300 | 2.6 | 4.3 | 0.00 | 0.14 | 0.02 | 99 | 1011.4 |
| 20260903211202 | 69 | 300 | 2.6 | 4.3 | 0.00 | 0.14 | 0.02 | 99 | 1011.2 |
| 20260903210002 | 69 | 300 | 2.6 | 4.3 | 0.01 | 0.14 | 0.02 | 99 | 1011.6 |
| 20260903204803 | 69 | 300 | 2.6 | 4.3 | 0.01 | 0.14 | 0.02 | 99 | 1011.4 |
| 20260903203603 | 69 | 300 | 2.6 | 4.3 | 0.01 | 0.14 | 0.02 | 99 | 1011.3 |
| 20260903202402 | 69 | 300 | 2.6 | 4.3 | 0.01 | 0.14 | 0.02 | 99 | 1010.5 |
| 20260903201202 | 69 | 222 | 1.7 | 2.6 | 0.01 | 0.14 | 0.02 | 99 | 1010.7 |
| 20260903200002 | 69 | 98 | 0.9 | 1.7 | 0.00 | 0.13 | 0.01 | 99 | 1010.6 |
| 20260903194803 | 69 | 127 | 1.7 | 2.6 | 0.00 | 0.13 | 0.01 | 99 | 1010.0 |
| 20260903193603 | 69 | 25 | 0.9 | 1.7 | 0.00 | 0.13 | 0.01 | 99 | 1010.3 |
| 20260903192404 | 69 | 159 | 0.9 | 1.7 | 0.00 | 0.13 | 0.01 | 99 | 1010.9 |
| 20260903191203 | 69 | 147 | 2.6 | 4.3 | 0.00 | 0.13 | 0.01 | 99 | 1010.2 |
| 20260903190003 | 69 | 139 | 1.7 | 4.3 | 0.00 | 0.13 | 0.01 | 99 | 1009.8 |
| 20260903184804 | 69 | 5 | 1.7 | 1.7 | 0.00 | 0.13 | 0.01 | 99 | 1009.6 |
| 20260903183603 | 69 | 287 | 0.0 | 1.7 | 0.00 | 0.13 | 0.01 | 99 | 1009.6 |
| 20260903182402 | 69 | 287 | 0.9 | 1.7 | 0.00 | 0.13 | 0.01 | 99 | 1009.5 |
| 20260903181202 | 69 | 320 | 0.0 | 0.0 | 0.00 | 0.13 | 0.01 | 99 | 1009.5 |
| 20260903180002 | 69 | 103 | 0.0 | 1.7 | 0.00 | 0.13 | 0.01 | 99 | 1009.6 |
| 20260903174803 | 69 | 259 | 1.7 | 2.6 | 0.00 | 0.13 | 0.01 | 99 | 1009.9 |
| 20260903173603 | 69 | 332 | 0.0 | 0.0 | 0.00 | 0.13 | 0.01 | 99 | 1009.6 |
| 20260903172403 | 69 | 313 | 1.7 | 2.6 | 0.00 | 0.13 | 0.01 | 99 | 1009.4 |
| 20260903171202 | 69 | 296 | 0.9 | 1.7 | 0.00 | 0.13 | 0.01 | 99 | 1009.6 |
| 20260903170002 | 69 | 358 | 0.9 | 2.6 | 0.00 | 0.13 | 0.01 | 99 | 1009.4 |
| 20260903164803 | 69 | 98 | 2.6 | 4.3 | 0.00 | 0.13 | 0.01 | 99 | 1009.4 |
| 20260903163603 | 69 | 56 | 1.7 | 2.6 | 0.00 | 0.13 | 0.01 | 99 | 1009.8 |
| 20260903162403 | 70 | 39 | 2.6 | 4.3 | 0.00 | 0.13 | 0.01 | 99 | 1009.6 |
| 20260903161202 | 70 | 120 | 0.9 | 1.7 | 0.01 | 0.13 | 0.01 | 99 | 1009.3 |
| 20260903160003 | 70 | 318 | 2.6 | 4.3 | 0.01 | 0.13 | 0.01 | 99 | 1009.4 |
| 20260903154803 | 70 | 302 | 2.6 | 5.2 | 0.00 | 0.13 | 0.01 | 99 | 1009.5 |
| 20260903153602 | 70 | 285 | 0.0 | 1.7 | 0.00 | 0.13 | 0.01 | 99 | 1009.5 |
| 20260903152402 | 70 | 237 | 0.9 | 1.7 | 0.00 | 0.13 | 0.01 | 99 | 1010.1 |
| 20260903151201 | 70 | 240 | 1.7 | 1.7 | 0.00 | 0.12 | 0.00 | 99 | 1009.8 |
| 20260903150004 | 70 | 309 | 0.9 | 1.7 | 0.00 | 0.12 | 0.12 | 99 | 1010.0 |
| 20260903144802 | 70 | 320 | 1.7 | 2.6 | 0.00 | 0.12 | 0.12 | 99 | 1010.0 |
| 20260903143603 | 70 | 258 | 1.7 | 1.7 | 0.00 | 0.12 | 0.12 | 99 | 1009.9 |
| 20260903142402 | 70 | 83 | 0.0 | 0.0 | 0.00 | 0.12 | 0.12 | 99 | 1009.9 |
| 20260903141202 | 70 | 12 | 1.7 | 2.6 | 0.00 | 0.12 | 0.12 | 99 | 1010.1 |
| 20260903140004 | 70 | 57 | 2.6 | 5.2 | 0.00 | 0.12 | 0.12 | 99 | 1009.9 |
| 20260903134803 | 70 | 211 | 2.6 | 4.3 | 0.00 | 0.12 | 0.12 | 99 | 1009.8 |
| 20260903133603 | 70 | 251 | 0.9 | 1.7 | 0.00 | 0.12 | 0.12 | 99 | 1009.5 |
| 20260903132403 | 70 | 353 | 0.0 | 0.0 | 0.00 | 0.12 | 0.12 | 99 | 1009.3 |
| 20260903131202 | 70 | 22 | 0.9 | 1.7 | 0.00 | 0.12 | 0.12 | 99 | 1009.9 |
| 20260903130001 | 70 | 124 | 1.7 | 2.6 | 0.00 | 0.12 | 0.12 | 99 | 1010.2 |
| 20260903124803 | 70 | 108 | 1.7 | 2.6 | 0.00 | 0.12 | 0.12 | 99 | 1010.7 |
| 20260903123604 | 70 | 349 | 4.3 | 6.1 | 0.00 | 0.12 | 0.12 | 99 | 1010.0 |
| 20260903122403 | 70 | 330 | 4.3 | 5.2 | 0.00 | 0.12 | 0.12 | 99 | 1010.5 |
| 20260903121202 | 70 | 175 | 4.3 | 5.2 | 0.00 | 0.12 | 0.12 | 99 | 1010.4 |
| 20260903120003 | 70 | 228 | 1.7 | 2.6 | 0.00 | 0.12 | 0.12 | 99 | 1010.5 |
| 20260903114801 | 70 | 114 | 0.0 | 0.9 | 0.00 | 0.12 | 0.12 | 99 | 1010.7 |
| 20260903113601 | 70 | 40 | 0.0 | 0.0 | 0.00 | 0.12 | 0.12 | 99 | 1011.0 |
| 20260903112403 | 70 | 305 | 1.7 | 2.6 | 0.00 | 0.12 | 0.12 | 99 | 1011.3 |
| 20260903111202 | 70 | 99 | 1.7 | 4.3 | 0.00 | 0.12 | 0.12 | 99 | 1011.4 |
| 20260903110002 | 70 | 65 | 2.6 | 2.6 | 0.01 | 0.12 | 0.12 | 99 | 1011.3 |
| 20260903104803 | 70 | 294 | 1.7 | 1.7 | 0.01 | 0.12 | 0.12 | 99 | 1010.9 |
| 20260903103604 | 70 | 181 | 0.0 | 0.0 | 0.01 | 0.12 | 0.12 | 99 | 1011.1 |
| 20260903102402 | 70 | 206 | 2.6 | 4.3 | 0.01 | 0.12 | 0.12 | 99 | 1011.1 |
| 20260903101202 | 70 | 300 | 0.9 | 1.7 | 0.01 | 0.12 | 0.12 | 99 | 1011.0 |
| 20260903100002 | 70 | 204 | 1.7 | 1.7 | 0.00 | 0.11 | 0.11 | 99 | 1010.4 |
| 20260903094801 | 70 | 277 | 1.7 | 2.6 | 0.00 | 0.11 | 0.11 | 99 | 1010.6 |
| 20260903093603 | 70 | 276 | 0.0 | 0.9 | 0.00 | 0.11 | 0.11 | 99 | 1010.7 |
| 20260903092403 | 70 | 298 | 2.6 | 4.3 | 0.00 | 0.11 | 0.11 | 99 | 1010.5 |
| 20260903091202 | 70 | 282 | 0.0 | 0.9 | 0.00 | 0.11 | 0.11 | 99 | 1010.7 |
| 20260903090003 | 70 | 185 | 1.7 | 2.6 | 0.00 | 0.11 | 0.11 | 99 | 1010.6 |
| 20260903084803 | 71 | 181 | 0.0 | 0.0 | 0.00 | 0.11 | 0.11 | 99 | 1011.1 |
| 20260903083602 | 70 | 180 | 1.7 | 1.7 | 0.00 | 0.11 | 0.11 | 99 | 1011.6 |
| 20260903082403 | 70 | 191 | 2.6 | 4.3 | 0.00 | 0.11 | 0.11 | 99 | 1011.6 |
| 20260903081203 | 71 | 28 | 1.7 | 2.6 | 0.02 | 0.11 | 0.11 | 99 | 1011.8 |
| 20260903080002 | 71 | 240 | 1.7 | 1.7 | 0.07 | 0.11 | 0.11 | 99 | 1012.3 |
| 20260903074802 | 71 | 241 | 2.6 | 4.3 | 0.08 | 0.11 | 0.11 | 99 | 1012.1 |
| 20260903073602 | 70 | 317 | 0.9 | 1.7 | 0.08 | 0.11 | 0.11 | 99 | 1011.8 |
| 20260903072402 | 71 | 346 | 1.7 | 4.3 | 0.07 | 0.10 | 0.10 | 99 | 1012.4 |
| 20260903071201 | 71 | 265 | 0.0 | 0.0 | 0.06 | 0.09 | 0.09 | 99 | 1012.7 |
| 20260903070001 | 71 | 131 | 1.7 | 4.3 | 0.01 | 0.04 | 0.04 | 99 | 1012.8 |
| 20260903064803 | 72 | 13 | 1.7 | 5.2 | 0.00 | 0.03 | 0.03 | 99 | 1012.6 |
| 20260903063603 | 71 | 140 | 0.0 | 0.0 | 0.00 | 0.03 | 0.03 | 99 | 1012.4 |
| 20260903062401 | 71 | 131 | 0.0 | 0.9 | 0.01 | 0.03 | 0.03 | 97 | 1012.9 |
| 20260903061202 | 72 | 102 | 4.3 | 7.0 | 0.01 | 0.03 | 0.03 | 97 | 1012.6 |
| 20260903060001 | 73 | 17 | 1.7 | 4.3 | 0.01 | 0.03 | 0.03 | 95 | 1012.8 |
| 20260903054802 | 73 | 48 | 4.3 | 6.1 | 0.01 | 0.03 | 0.03 | 98 | 1012.6 |
| 20260903053603 | 74 | 96 | 0.0 | 0.0 | 0.02 | 0.03 | 0.03 | 94 | 1012.5 |
| 20260903052403 | 75 | 119 | 2.6 | 2.6 | 0.01 | 0.02 | 0.02 | 95 | 1011.9 |
| 20260903051202 | 74 | 129 | 1.7 | 2.6 | 0.01 | 0.02 | 0.02 | 94 | 1012.3 |
| 20260903050004 | 75 | 121 | 1.7 | 4.3 | 0.01 | 0.02 | 0.02 | 86 | 1012.3 |
| 20260903044803 | 75 | 113 | 5.2 | 7.8 | 0.01 | 0.02 | 0.02 | 92 | 1011.7 |
| 20260903043601 | 76 | 109 | 1.7 | 2.6 | 0.01 | 0.01 | 0.01 | 99 | 1011.1 |
| 20260903042403 | 76 | 141 | 0.9 | 1.7 | 0.01 | 0.01 | 0.01 | 99 | 1010.9 |
| 20260903041201 | 77 | 153 | 0.9 | 1.7 | 0.01 | 0.01 | 0.01 | 99 | 1010.9 |
| 20260903040001 | 77 | 89 | 0.9 | 1.7 | 0.01 | 0.01 | 0.01 | 99 | 1011.1 |
| 20260903034803 | 77 | 111 | 0.9 | 1.7 | 0.01 | 0.01 | 0.01 | 99 | 1011.1 |
| 20260903033603 | 79 | 101 | 1.7 | 2.6 | 0.00 | 0.00 | 0.00 | 97 | 1011.4 |
| 20260903032403 | 80 | 46 | 0.0 | 0.9 | 0.00 | 0.00 | 0.00 | 93 | 1011.0 |
| 20260903031202 | 80 | 46 | 0.0 | 0.0 | 0.00 | 0.00 | 0.00 | 92 | 1011.1 |
| 20260903030002 | 79 | 46 | 0.0 | 0.9 | 0.00 | 0.00 | 0.00 | 93 | 1011.1 |
| 20260903024802 | 80 | 64 | 0.9 | 1.7 | 0.00 | 0.00 | 0.00 | 92 | 1010.9 |
| 20260903023603 | 80 | 100 | 0.0 | 2.6 | 0.00 | 0.00 | 0.00 | 93 | 1010.6 |
| 20260903022402 | 80 | 33 | 1.7 | 4.3 | 0.00 | 0.00 | 0.00 | 90 | 1010.6 |
| 20260903021202 | 80 | 35 | 2.6 | 4.3 | 0.00 | 0.00 | 0.00 | 91 | 1010.7 |
| 20260903020001 | 80 | 44 | 0.0 | 2.6 | 0.00 | 0.00 | 0.00 | 91 | 1010.7 |
| 20260903014803 | 80 | 26 | 0.9 | 0.9 | 0.00 | 0.00 | 0.00 | 91 | 1011.2 |
| 20260903013602 | 80 | 11 | 0.9 | 1.7 | 0.00 | 0.00 | 0.00 | 91 | 1010.9 |
| 20260903012402 | 79 | 27 | 0.9 | 1.7 | 0.00 | 0.00 | 0.00 | 92 | 1011.0 |
| 20260903011202 | 79 | 46 | 0.9 | 1.7 | 0.00 | 0.00 | 0.00 | 93 | 1011.1 |
| 20260903010002 | 78 | 337 | 1.7 | 2.6 | 0.00 | 0.00 | 0.00 | 95 | 1011.3 |
| 20260903004802 | 78 | 284 | 0.9 | 1.7 | 0.00 | 0.00 | 0.00 | 95 | 1011.5 |
| 20260903003602 | 77 | 342 | 0.0 | 0.0 | 0.00 | 0.00 | 0.00 | 97 | 1011.2 |
| 20260903002404 | 78 | 88 | 0.9 | 2.6 | 0.00 | 0.00 | 0.00 | 97 | 1010.7 |
| 20260903001203 | 77 | 351 | 0.0 | 0.0 | 0.00 | 0.00 | 0.00 | 97 | 1011.2 |
| 20260903000004 | 77 | 14 | 0.0 | 0.0 | 0.00 | 0.00 | 0.00 | 97 | 1011.3 |
| 20260902234805 | 76 | 77 | 0.0 | 0.9 | 0.00 | 0.00 | 0.00 | 98 | 1011.3 |
| 20260902233603 | 76 | 40 | 0.0 | 0.9 | 0.00 | 0.00 | 0.00 | 98 | 1011.5 |
| 20260902232403 | 76 | 38 | 0.9 | 1.7 | 0.00 | 0.00 | 0.00 | 99 | 1011.4 |
| 20260902231203 | 76 | 22 | 0.0 | 0.0 | 0.00 | 0.00 | 0.00 | 99 | 1011.3 |
| 20260902230004 | 76 | 32 | 0.9 | 0.9 | 0.00 | 0.00 | 0.00 | 99 | 1011.4 |
| 20260902224804 | 75 | 17 | 0.0 | 0.0 | 0.00 | 0.00 | 0.00 | 99 | 1011.3 |
| 20260902223604 | 74 | 7 | 0.0 | 0.0 | 0.00 | 0.00 | 0.00 | 99 | 1011.0 |